Location: Newark
(29.9790°N, 31.1340°E)
Time: 22:25:24
(UTC+00:00)

Transit 2A Rocket - Pass Details

Date: 26 January 2020
Orbit: 592 x 911 km, 66.7° (Epoch: 19 February)

Event Time Altitude Azimuth Distance (km) Brightness Sun altitude
Rises 01:40:53 0° 181° (S) 2,897 - -40.7°
Reaches altitude 10° 01:43:23 10° 170° (S) 1,960 - -40.1°
Maximum altitude 01:47:11 29° 110° (ESE) 1,091 - -39.3°
Drops below altitude 10° 01:50:55 10° 49° (NE) 1,920 - -38.5°
Exits shadow 01:52:19 - 42° (NE) 2,438 8.0 -38.2°
Sets 01:53:20 0° 38° (NE) 2,827 8.4 -38.0°
